SCP
0 0 0 0 0 0 0 0 0 0 0 0 0 0 0 0 0 0 0 0 0 0 0 0 0 0 0 0 0 0 0 0 0 0 0 0 0 0 0 0 0 0 0
0 0 0 0 0 0 0 0 0 0 0 0 0 0 0 0 0 0 0 0 0 0 0 0 0 0 0 0 0 0 0 0 0 0 0 0 0 0 0 0 0 0 0
0 0 0 0 0 0 0 0 0 0 0 0 0 0 0 0 0 0 0 0 0 0 0 0 0 0 0 0 0 0 0 0 0 0 0 0 0 0 0 0 0 0 0
0 0 0 0 0 0 0 0 0 0 0 0 0 0 0 0 0 0 0 0 0 0 0 0 0 0 0 0 0 0 0 0 0 0 0 0 0 0 0 0 0 0 0
0 0 0 0 0 0 0 0 0 0 0 0 0 0 0 0 0 0 0 0 0 0 0 0 0 0 0 0 0 0 0 0 0 0 0 0 0 0 0 0 0 0 0
0 0 0 0 0 0 0 0 0 0 0 0 0 0 0 0 0 0 0 0 0 0 0 0 0 0 0 0 0 0 0 0 0 0 0 0 0 0 0 0 0 0 0
0 0 0 0 0 0 0 0 0 0 0 0 0 0 0 0 0 0 0 0 0 0 0 0 0 0 0 0 0 0 0 0 0 0 0 0 0 0 0 0 0 0 0
0 0 0 0 0 0 0 0 0 0 0 0 0 0 0 0 0 0 0 0 0 0 0 0 0 0 0 0 0 0 0 0 0 0 0 0 0 0 0 0 0 0 0
0 0 0 0 0 0 0 0 0 0 0 0 0 0 0 0 0 0 0 0 0 0 0 0 0 0 0 0 0 0 0 0 0 0 0 0 0 0 0 0 0 0 0
0 0 0 0 0 0 0 0 0 0 0 0 0 0 0 0 0 0 0 0 0 0 0 0 0 0 0 0 0 0 0 0 0 0 0 0 0 0 0 0 0 0 0
0 0 0 0 0 0 0 0 0 0 0 0 0 0 0 0 0 0 0 0 0 0 0 0 0 0 0 0 0 0 0 0 0 0 0 0 0 0 0 0 0 0 0
0 0 0 0 0 0 0 0 0 0 0 0 0 0 0 0 0 0 0 0 0 0 0 0 0 0 0 0 0 0 0 0 0 0 0 0 0 0 0 0 0 0 0
0 0 0 0 0 0 0 0 0 0 0 0 0 0 0 0 0 0 0 0 0 0 0 0 0 0 0 0 0 0 0 0 0 0 0 0 0 0 0 0 0 0 0
0 0 0 0 0 0 0 0 0 0 0 0 0 0 0 0 0 0 0 0 0 0 0 0 0 0 0 0 0 0 0 0 0 0 0 0 0 0 0 0 0 0 0
0 0 0 0 0 0 0 0 0 0 0 0 0 0 0 0 0 0 0 0 0 0 0 0 0 0 0 0 0 0 0 0 0 0 0 0 0 0 0 0 0 0 0
0 0 0 0 0 0 0 0 0 0 0 0 0 0 0 0 0 0 0 0 0 0 0 0 0 0 0 0 0 0 0 0 0 0 0 0 0 0 0 0 0 0 0
0 0 0 0 0 0 0 0 0 0 0 0 0 0 0 0 0 0 0 0 0 0 0 0 0 0 0 0 0 0 0 0 0 0 0 0 0 0 0 0 0 0 0
0 0 0 0 0 0 0 0 0 0 0 0 0 0 0 0 0 0 0 0 0 0 0 0 0 0 0 0 0 0 0 0 0 0 0 0 0 0 0 0 0 0 0
0 0 0 0 0 0 0 0 0 0 0 0 0 0 0 0 0 0 0 0 0 0 0 0 0 0 0 0 0 0 0 0 0 0 0 0 0 0 0 0 0 0 0
0 0 0 0 0 0 0 0 0 0 0 0 0 0 0 0 0 0 0 0 0 0 0 0 0 0 0 0 0 0 0 0 0 0 0 0 0 0 0 0 0 0 0
0 0 0 0 0 0 0 0 0 0 0 0 0 0 0 0 0 0 0 0 0 0 0 0 0 0 0 0 0 0 0 0 0 0 0 0 0 0 0 0 0 0 0
0 0 0 0 0 0 0 0 0 0 0 0 0 0 0 0 0 0 0 0 0 0 0 0 0 0 0 0 0 0 0 0 0 0 0 0 0 0 0 0 0 0 0
0 0 0 0 0 0 0 0 0 0 0 0 0 0 0 0 0 0 0 0 0 0 0 0 0 0 0 0 0 0 0 0 0 0 0 0 0 0 0 0 0 0 0
0 0 0 0 0 0 0 0 0 0 0 0 0 0 0 0 0 0 0 0 0 0 0 0 0 0 0 0 0 0 0 0 0 0 0 0 0 0 0 0 0 0 0
0 0 0 0 0 0 0 0 0 0 0 0 0 0 0 0 0 0 0 0 0 0 0 0 0 0 0 0 0 0 0 0 0 0 0 0 0 0 0 0 0 0 0
0 0 0 0 0 0 0 0 0 0 0 0 0 0 0 0 0 0 0 0 0 0 0 0 0 0 0 0 0 0 0 0 0 0 0 0 0 0 0 0 0 0 0
Wind_Speed
7 7 6 5 5 4 4 4 5 6 6 6 6 7 7 7 6 6 5 12 12 15 16 16 16 17 17 18 18 18 19 19 19 20 20 20 21 21 21 22 22 22 23
8 8 7 6 5 5 5 5 6 5 5 5 6 6 6 6 6 6 5 8 13 13 14 14 15 15 16 16 17 17 17 18 18 18 19 19 19 20 20 21 21 21 22
10 9 8 7 6 6 7 6 6 5 6 6 6 6 5 5 5 5 5 4 6 11 12 13 13 13 14 14 15 15 16 16 17 17 17 18 18 18 19 19 20 21 21
11 9 8 8 7 7 7 7 6 6 6 6 5 5 4 4 5 5 4 4 4 5 8 12 12 12 12 13 13 14 14 15 15 15 16 16 17 17 18 18 19 20 20
11 9 8 8 10 8 7 8 7 7 7 6 6 5 4 4 4 5 5 5 4 4 3 8 11 11 11 11 12 12 13 13 13 14 14 15 15 16 17 17 18 19 20
11 10 8 10 10 9 8 8 8 6 6 7 7 5 3 3 3 4 4 3 3 4 3 4 4 6 9 9 10 10 11 11 11 12 12 13 14 15 16 17 18 19 20
12 11 9 11 11 10 12 11 8 10 7 8 6 3 2 2 3 3 3 3 3 3 4 3 2 2 3 7 8 8 9 9 10 10 11 12 13 14 15 16 17 18 19
12 11 13 12 12 10 11 11 11 7 5 8 6 5 4 2 3 4 3 4 4 3 3 4 3 2 3 2 4 7 7 7 8 9 10 11 12 13 14 16 17 18 19
10 11 14 13 14 13 13 14 16 13 10 9 5 7 7 7 4 3 5 4 5 4 3 4 4 3 4 3 2 3 5 6 6 7 9 10 11 13 14 15 17 18 19
10 11 13 14 14 13 14 15 16 10 12 11 6 4 3 7 7 4 3 4 6 6 6 5 5 4 4 3 4 4 2 3 4 6 7 9 11 12 14 15 17 18 20
9 10 12 13 14 13 14 16 15 12 9 10 8 5 3 3 4 6 5 4 4 5 6 6 5 5 5 4 4 4 3 0 2 4 6 8 10 12 14 15 17 18 20
7 9 10 12 13 13 14 14 16 15 12 11 8 6 7 6 7 6 5 5 4 4 5 5 6 6 5 5 6 7 5 3 2 4 6 8 10 12 14 15 17 18 19
7 10 10 12 11 12 13 13 14 14 13 12 12 9 7 6 5 5 6 5 4 3 4 4 5 6 6 5 5 9 7 6 4 5 6 8 10 11 13 15 17 18 19
8 9 11 11 12 12 13 14 12 14 11 12 13 10 6 6 5 6 7 7 5 3 4 5 4 7 6 5 8 10 5 8 7 7 8 9 10 12 13 15 16 18 19
7 10 12 12 12 13 14 14 11 14 12 13 12 11 7 5 5 5 5 7 9 8 8 7 5 7 6 5 9 5 5 8 8 9 9 10 11 12 13 15 17 18 19
8 10 12 12 12 12 13 12 9 11 13 12 9 10 9 6 5 5 5 5 5 7 6 5 4 5 7 6 9 6 5 9 10 10 11 11 12 13 14 15 17 18 19
9 10 10 11 12 12 12 12 12 12 14 12 10 11 11 9 8 6 5 5 4 5 5 3 2 4 6 6 5 4 5 5 5 11 12 13 13 13 14 16 17 18 19
9 9 9 10 11 11 11 13 14 13 15 15 14 13 13 10 10 8 7 6 5 5 6 6 3 4 5 6 5 5 4 4 4 10 13 13 14 14 15 15 16 17 18
8 8 9 11 11 11 11 13 13 13 14 15 15 15 15 14 13 9 9 8 6 4 5 6 4 3 3 3 3 3 4 4 5 8 12 13 13 14 14 15 16 17 18
9 9 9 9 9 9 10 11 11 11 12 12 12 13 14 15 15 14 11 10 8 7 6 6 4 3 3 3 3 3 3 4 4 4 8 9 11 13 14 15 16 17 17
8 8 8 8 8 8 9 10 11 11 11 11 10 11 12 14 15 14 11 12 11 8 7 5 4 3 3 4 4 4 4 3 4 4 4 4 4 4 5 10 13 16 17
7 7 8 8 8 8 12 17 13 10 10 11 11 9 9 11 16 19 19 18 16 12 9 7 5 5 5 5 4 4 4 3 3 2 2 3 3 4 4 4 11 17 17
6 7 7 7 8 10 15 16 17 10 9 10 10 10 9 9 12 11 15 17 14 14 14 9 7 7 6 6 6 6 5 5 5 2 1 5 3 5 4 6 15 16 17
6 6 6 6 6 8 14 14 14 9 7 8 10 11 12 12 12 14 12 11 9 8 10 7 6 6 5 5 5 5 5 4 4 3 3 5 3 4 4 4 12 15 16
4 4 4 6 6 6 12 13 12 6 6 7 8 9 12 13 19 21 14 12 10 7 10 12 11 10 11 11 8 4 3 3 5 4 4 4 2 2 3 4 6 11 13
3 4 3 4 5 5 9 12 13 5 6 6 6 8 11 15 20 22 13 11 10 8 7 7 9 10 9 9 12 7 6 5 4 3 2 2 1 1 4 2 1 2 5
Wind_Direction
158 157 160 160 157 142 139 126 116 109 99 86 77 73 75 82 77 61 49 61 82 94 94 92 90 86 83 79 76 72 69 66 62 58 55 51 49 46 43 39 36 34 30
165 164 162 160 155 151 145 136 131 119 107 99 91 83 79 80 85 79 62 51 61 80 92 93 90 87 83 80 76 73 69 66 62 58 54 50 46 43 39 36 33 30 27
170 168 166 163 159 150 141 134 127 118 117 111 101 91 84 82 86 85 77 63 49 56 80 90 90 88 85 82 78 74 70 65 61 56 52 48 44 40 36 32 29 25 22
172 168 168 168 158 150 149 146 145 139 132 126 118 107 95 89 89 89 81 77 65 50 61 82 84 87 86 83 80 76 71 65 59 54 49 44 39 35 31 27 24 21 17
175 171 172 167 158 157 157 158 154 149 143 132 120 113 108 104 104 99 90 82 85 84 63 75 72 76 83 83 80 77 72 66 58 52 45 39 34 30 26 22 18 15 12
179 174 171 167 164 163 163 164 158 149 141 135 121 105 105 118 115 120 119 104 108 118 107 88 62 65 79 81 79 76 72 66 58 49 41 34 28 23 19 16 12 9 6
183 180 173 170 171 174 174 168 154 148 144 139 114 103 85 123 138 147 142 141 139 129 124 115 98 72 67 74 72 71 67 62 55 46 36 28 22 17 11 8 5 2 359
188 185 178 177 177 175 172 170 157 150 164 172 147 138 153 218 231 185 162 161 162 153 149 139 130 121 107 81 77 72 60 54 46 38 29 20 13 8 4 1 358 356 353
193 188 184 179 180 180 180 178 175 165 175 195 191 163 161 187 184 195 190 175 170 169 168 157 156 158 149 136 103 76 62 49 37 26 18 10 4 359 355 354 351 349 348
200 193 186 183 184 186 185 184 186 182 173 184 206 224 179 149 151 166 203 196 183 181 179 177 171 175 166 152 151 142 101 50 26 13 4 358 353 350 348 346 345 344 342
203 199 191 188 189 191 189 188 190 191 186 187 184 173 170 152 140 143 174 194 198 197 183 179 175 180 180 171 167 172 176 193 352 348 345 344 342 342 340 340 339 338 337
203 202 196 194 193 194 193 192 193 197 198 196 196 183 173 170 180 162 156 167 187 200 184 180 180 181 184 181 181 178 198 226 284 313 324 328 330 332 333 333 333 333 332
202 205 201 201 197 196 196 193 195 200 202 201 203 203 200 197 165 156 137 145 157 171 178 189 188 180 184 177 177 187 209 227 261 288 303 312 318 322 324 325 326 327 327
204 198 205 207 201 197 198 196 198 202 204 207 208 204 203 204 184 172 154 145 144 156 180 195 183 183 180 175 188 192 211 228 249 272 288 300 306 312 315 318 319 321 322
193 193 200 208 206 201 201 198 202 203 204 208 208 203 198 195 196 191 162 155 152 165 194 193 181 185 177 173 192 185 201 232 246 264 279 288 296 302 307 311 314 316 318
189 188 195 203 206 205 203 202 201 202 205 208 204 200 197 186 189 189 175 168 152 150 169 180 174 166 168 176 193 187 208 234 247 261 271 280 287 295 300 305 309 312 315
192 190 192 198 204 206 203 205 206 201 206 207 201 198 198 183 183 183 173 166 156 138 138 149 132 143 158 171 185 194 211 224 241 257 267 273 280 288 294 300 304 308 312
198 193 190 197 204 206 204 205 207 205 205 205 203 198 195 186 184 180 176 173 161 144 135 142 140 145 166 176 185 201 214 221 226 254 266 272 278 285 291 297 301 306 310
200 193 190 199 204 205 205 209 210 209 209 208 204 199 193 184 185 179 174 169 153 135 122 135 142 141 145 163 181 212 225 231 235 253 264 269 275 283 290 294 300 305 308
200 195 194 200 203 204 208 210 211 211 211 210 205 200 192 189 185 176 171 164 149 138 128 130 131 141 151 158 167 210 238 233 241 241 252 261 271 279 285 293 300 304 305
201 190 189 197 199 203 210 209 210 211 209 208 203 199 193 187 181 176 170 164 155 148 143 138 146 146 167 174 195 195 224 240 248 232 243 252 264 263 274 287 294 297 302
195 185 189 192 200 210 217 216 211 210 207 203 198 191 181 174 176 178 176 170 164 157 158 157 162 178 194 196 191 198 211 225 258 230 228 255 243 258 255 250 286 298 305
190 190 191 191 202 217 222 222 216 205 203 199 191 178 172 168 163 162 167 167 168 170 165 159 173 191 192 195 193 207 213 220 234 220 261 271 242 259 259 275 292 299 305
188 189 190 192 200 218 226 226 216 203 197 191 184 175 167 163 165 159 157 161 165 173 172 173 184 192 193 190 192 201 209 231 255 239 206 263 256 251 264 266 285 294 305
183 183 180 187 199 216 224 225 209 189 187 181 173 167 165 166 174 170 166 167 171 186 194 197 202 211 217 219 209 189 195 221 256 244 198 231 262 279 269 257 271 291 310
171 162 168 181 194 209 222 222 206 179 176 165 160 163 172 173 180 180 175 173 181 185 183 198 211 223 225 228 226 214 204 218 235 250 189 197 238 325 301 282 253 308 307